Cloud_Cover
5 9 97 89 3 5 57 84 20 10 18 20 6 11 4 20 0 0 0 0 0 0 0 0 0 0 45 4 38 100 100 100 3 5 0 0 3 0 0 42 100 3 0 36 100
0 0 44 10 0 86 100 83 15 10 14 18 0 0 0 0 0 0 0 0 5 23 0 2 0 0 0 5 47 94 100 97 90 42 5 17 16 2 0 34 80 51 9 32 100
4 8 5 11 58 97 95 85 1 0 9 0 0 0 0 0 0 0 0 2 5 2 0 0 20 0 0 5 25 84 100 87 99 100 100 36 1 5 4 20 8 90 100 100 100
22 26 14 0 14 20 17 14 0 0 17 0 0 4 0 0 1 0 0 5 5 0 0 5 72 56 0 6 100 100 97 100 86 100 100 100 18 95 42 0 7 5 99 100 100
5 15 19 5 5 14 5 5 2 12 0 2 0 0 0 0 0 1 5 30 22 30 7 100 100 98 4 24 100 100 59 100 100 100 100 86 91 65 13 26 99 40 100 100 100
5 6 5 8 8 69 96 18 5 5 0 0 0 0 0 0 0 5 5 76 87 100 100 53 100 40 11 4 100 97 95 80 100 100 100 100 97 99 87 100 98 100 100 100 100
50 51 5 5 49 86 100 71 5 5 2 0 0 0 0 0 0 58 100 59 100 100 98 87 100 95 5 19 100 99 100 100 100 100 100 100 95 100 100 100 97 100 100 100 100
5 100 100 18 25 93 5 8 60 13 1 0 0 0 1 0 0 100 100 100 9 87 81 100 41 99 69 28 100 100 97 100 100 100 100 100 73 100 49 100 98 100 100 100 100
73 100 80 88 29 5 5 7 84 5 2 4 0 1 1 0 6 78 100 100 34 100 100 98 86 100 5 43 100 100 97 100 100 100 100 100 100 100 78 97 82 100 100 99 100
96 69 96 29 95 40 14 100 54 14 10 5 5 15 4 5 53 100 96 100 100 100 100 96 100 70 64 61 100 100 100 100 100 100 100 100 100 100 57 100 60 100 78 36 8
100 97 97 100 100 100 100 100 100 100 66 68 26 2 5 82 100 100 96 100 92 59 31 88 26 84 42 100 75 100 100 100 100 100 100 100 100 100 22 100 100 91 52 9 100
100 100 100 100 100 100 100 100 100 100 100 100 100 30 5 34 79 100 100 56 29 21 13 87 87 73 100 100 100 100 100 100 100 100 100 100 100 66 57 100 100 99 88 57 94
100 100 100 100 100 100 100 100 100 100 99 100 100 75 7 37 100 100 83 88 59 72 100 100 100 100 100 100 100 100 100 100 100 100 100 100 100 99 100 100 100 100 100 100 84
100 100 100 100 100 100 100 100 100 100 100 100 100 100 39 13 100 34 5 66 90 56 100 100 100 100 100 100 100 100 100 100 100 100 100 100 97 100 100 100 100 100 100 100 100
100 100 100 100 100 100 100 100 100 100 100 100 100 100 100 17 45 97 23 80 43 94 86 32 100 100 100 100 100 100 100 100 100 100 100 100 100 100 100 98 100 100 100 100 100
100 100 100 100 100 100 100 100 100 100 100 100 100 100 100 6 17 50 63 85 85 100 30 55 59 96 100 96 100 100 100 100 100 100 100 100 100 95 94 100 100 100 100 100 100
100 100 100 100 100 100 100 100 100 100 100 100 100 100 100 100 13 37 100 100 31 10 39 63 46 72 97 86 100 100 100 100 100 100 100 100 96 15 99 100 100 100 100 100 100
100 100 100 100 100 100 100 100 100 100 100 100 100 100 100 100 87 5 81 52 100 57 25 24 1 85 100 62 97 97 100 74 100 100 100 100 88 2 100 100 100 100 100 100 100
34 71 100 100 100 100 100 100 100 100 100 100 100 100 100 100 100 100 100 94 7 100 64 37 23 5 5 45 58 89 100 100 100 99 100 100 100 5 16 100 100 100 100 100 100
74 73 77 8 57 95 99 100 100 100 100 100 100 100 100 100 100 100 70 100 77 45 100 57 32 5 5 25 56 94 86 100 62 100 100 100 100 100 5 32 100 100 100 100 100
40 33 5 19 85 98 100 87 100 96 100 100 100 100 100 100 100 100 98 98 100 80 90 18 13 74 21 88 17 5 99 100 100 73 100 100 100 100 100 35 96 93 100 94 100
50 6 5 8 17 75 99 100 100 100 100 68 100 100 100 100 100 100 100 100 100 100 75 95 46 96 100 78 31 95 4 12 100 84 90 97 100 100 100 99 72 68 71 100 100
12 9 38 5 53 99 80 100 100 100 100 100 100 100 100 100 100 100 100 100 100 100 100 100 100 82 99 100 100 100 96 99 10 4 99 100 100 98 99 100 79 100 98 94 79
45 19 46 100 84 95 87 100 93 99 100 100 100 100 100 100 100 100 100 100 100 100 100 100 99 100 94 100 100 100 100 100 100 88 60 48 100 100 100 81 92 6 5 43 25
11 6 24 91 100 100 99 85 81 98 70 82 100 100 100 100 100 100 100 100 100 100 100 100 100 91 100 100 100 100 100 100 100 100 97 45 6 17 73 100 95 57 97 72 100
68 64 86 82 100 100 100 100 100 100 100 74 78 99 100 96 100 100 100 100 100 100 100 100 100 100 100 73 100 100 100 100 100 100 100 100 100 100 5 5 4 0 3 5 5
100 100 100 100 100 100 100 100 100 100 99 100 96 98 100 99 85 100 100 100 100 100 100 100 100 100 100 95 57 100 100 100 100 100 100 100 100 96 100 100 67 88 23 1 0